Simultaneous Nadir Overpasses (SNOs) Predictions

Prediction of SNOs between TERRA and METOP-C Satellite Orbit:

Table of predicted SNOs for the next 14.0 days since TLE Epoch: 10/24/2020
Index Date (TERRA) Time (TERRA) Lat,Lon (TERRA) SZA (TERRA ) Date (METOP-C) Time (METOP-C) Lat,Lon (METOP-C) SZA (METOP-C ) Distance(km) Time Diff (sec)
1 10/24/2020 20:53:32 -81.27, 93.19 83.52 10/24/2020 20:52:35 -81.27, 93.24 83.54 0.87 57
2 10/24/2020 21:42:58 81.28, -99.07 96.52 10/24/2020 21:43:14 81.27, -99.07 96.52 0.08 16
3 10/27/2020 16:27:46 -81.28, 159.75 82.54 10/27/2020 16:26:59 -81.27, 159.86 82.55 1.97 47
4 10/27/2020 17:17:12 81.28, -32.54 97.49 10/27/2020 17:17:38 81.28, -32.45 97.51 1.54 26
5 10/30/2020 12:02:01 -81.26,-134.10 81.66 10/30/2020 12:01:24 -81.27,-133.92 81.65 3.25 37
6 10/30/2020 12:51:26 81.28, 33.96 98.42 10/30/2020 12:52:03 81.28, 33.78 98.41 3.21 37
7 11/02/2020 07:36:14 -81.26, -67.61 80.75 11/02/2020 07:35:48 -81.27, -67.71 80.78 1.82 26
8 11/02/2020 08:25:39 81.28, 100.42 99.32 11/02/2020 08:26:26 81.28, 100.38 99.34 0.98 47
9 11/05/2020 03:10:28 -81.26, -1.16 79.89 11/05/2020 03:10:12 -81.27, -1.14 79.89 0.66 16



Historial Predications of SNOs between TERRA and METOP-C
